Location: Harwich
(41.7160°N, 69.9939°W)
Time: 08:48:32
(UTC+02:00)

A-11 Canister half - Pass Details

Date: 02 March 2024
Orbit: 1513 x 1686 km, 47.2° (Epoch: 24 April)

Event Time Altitude Azimuth Distance (km) Brightness Sun altitude
Exits shadow 09:21:21 46° 306° (NW) 2,128 9.4 -32.2°
Maximum altitude 09:24:35 65° 6° (N) 1,790 9.3 -31.7°
Drops below altitude 10° 09:34:24 10° 88° (E) 3,842 11.9 -30.0°
Sets 09:37:31 0° 92° (E) 4,804 12.6 -29.4°
